{"data":{"norad_id":47904,"intl_designator":"2021-021AW","name":"STARLINK-2364","alt_names":[],"object_type":"PAYLOAD","status":"ACTIVE","operator":null,"country":"US","launch_date":"2021-03-14","launch_site_code":"AFETR","launch_vehicle":null,"mission":null,"orbit_class":"UNKNOWN","rcs_meters":null,"size_class":null,"mass_kg":null,"dimensions":null,"purposes":["comms"],"wikipedia_slug":null,"has_3d_model":false,"image_url":null,"decayed_at":null,"tle_current":{"epoch":"2026-05-25T00:29:03.177888Z","epoch_age_seconds":67164,"freshness":"FRESH","line1":"1 47904U 21021AW  26145.02017567  .00007375  00000+0  24913-3 0  9999","line2":"2 47904  53.1559 260.2440 0000971  84.0941 276.0171 15.31707700288109","mean_motion":15.317077,"eccentricity":9.71e-5,"inclination_deg":53.1559,"raan_deg":260.244,"arg_perigee_deg":84.0941,"mean_anomaly_deg":276.0171,"bstar":0.00024913,"rev_number":28810,"period_min":94.012715350324,"perigee_km":470.052018295,"apogee_km":471.38206574996,"semimajor_km":6848.8540420225,"source":"CELESTRAK","updated_at":"2026-05-25T13:38:16.636607Z"}}}